Weather History for Danbury, CT

Change the Weather History Date:

Tuesday, October 29, 2013

  Actual Average Record
Temperature  
Mean Temperature 39 °F -  
Max Temperature 48 °F 57 °F 72 °F (1971)
Min Temperature 30 °F 35 °F 25 °F (1970)
Degree Days  
Heating Degree Days 26    
Moisture  
Dew Point 25 °F    
Average Humidity 56    
Maximum Humidity 82    
Minimum Humidity 42    
Precipitation  
Precipitation 0.00 in - - ()
Sea Level Pressure  
Sea Level Pressure 30.40 in    
Wind  
Wind Speed 3 mph (NNE)    
Max Wind Speed 7 mph    
Max Gust Speed -    
Visibility 10 miles    
Events      
Averages and records for this station are not official NWS values.
T = Trace of Precipitation, MM = Missing Value Source: NWS Daily Summary

Daily Weather History Graph

Daily Weather History Graph

Search for Another Location

Airport:

Trip Planner

Search our weather history database for the weather conditions in past years. The results will help you decide how hot, cold, wet, or windy it might be!

Date:

Astronomy

Oct. 29, 2013 Rise Set
Actual Time 7:22 AM EDT 5:52 PM EDT
Civil Twilight 6:53 AM EDT 6:21 PM EDT
Nautical Twilight 6:20 AM EDT 6:53 PM EDT
Astronomical Twilight 5:48 AM EDT 7:25 PM EDT
Moon 2:06 AM EDT (10/29) 3:07 PM EDT (10/29)
Length of Visible Light 11h 27m
Length of Day
10h 30m
Waning Crescent, 25% of the Moon is Illuminated
Oct 29
Waning Crescent
Nov 3
New
Nov 10
First Quarter
Nov 17
Full
Nov 25
Last Quarter

Hourly Weather History & Observations

Time (EDT) Temp. Windchill Dew Point Humidity Pressure Visibility Wind Dir Wind Speed Gust Speed Precip Events Conditions
12:53 AM 39.0 °F - 28.9 °F 67% 30.36 in 10.0 mi Calm Calm - N/A   Scattered Clouds
1:53 AM 41.0 °F 39.0 °F 27.0 °F 57% 30.37 in 10.0 mi NE 3.5 mph - N/A   Overcast
2:53 AM 41.0 °F 38.0 °F 26.1 °F 55% 30.37 in 10.0 mi NE 4.6 mph - N/A   Overcast
3:53 AM 41.0 °F 38.0 °F 25.0 °F 53% 30.38 in 10.0 mi NE 4.6 mph - N/A   Overcast
4:53 AM 39.9 °F 37.8 °F 23.0 °F 51% 30.39 in 10.0 mi NNE 3.5 mph - N/A   Overcast
5:53 AM 39.9 °F 35.1 °F 23.0 °F 51% 30.41 in 10.0 mi NNE 6.9 mph - N/A   Overcast
6:53 AM 39.0 °F 35.7 °F 23.0 °F 53% 30.42 in 10.0 mi NE 4.6 mph - N/A   Mostly Cloudy
7:53 AM 39.0 °F 36.8 °F 23.0 °F 53% 30.43 in 10.0 mi NE 3.5 mph - N/A   Overcast
8:53 AM 39.9 °F 35.8 °F 21.9 °F 49% 30.44 in 10.0 mi NE 5.8 mph - N/A   Scattered Clouds
9:53 AM 42.1 °F 39.2 °F 23.0 °F 47% 30.45 in 10.0 mi ENE 4.6 mph - N/A   Overcast
10:53 AM 43.0 °F 39.5 °F 23.0 °F 45% 30.44 in 10.0 mi NNE 5.8 mph - N/A   Overcast
11:53 AM 45.0 °F 43.5 °F 25.0 °F 46% 30.43 in 10.0 mi Variable 3.5 mph - N/A   Overcast
12:53 PM 46.9 °F - 25.0 °F 42% 30.42 in 10.0 mi NNW 4.6 mph - N/A   Overcast
1:53 PM 46.9 °F - 26.1 °F 44% 30.40 in 10.0 mi Variable 4.6 mph - N/A   Overcast
2:53 PM 46.9 °F - 25.0 °F 42% 30.38 in 10.0 mi WSW 6.9 mph - N/A   Scattered Clouds
3:53 PM 48.0 °F - 26.1 °F 42% 30.39 in 10.0 mi WSW 4.6 mph - N/A   Mostly Cloudy
4:53 PM 46.9 °F - 26.1 °F 44% 30.39 in 10.0 mi SW 4.6 mph - N/A   Mostly Cloudy
5:53 PM 43.0 °F - 28.0 °F 56% 30.39 in 10.0 mi Calm Calm - N/A   Clear
6:53 PM 37.0 °F 34.5 °F 27.0 °F 67% 30.40 in 10.0 mi SW 3.5 mph - N/A   Clear
7:53 PM 35.1 °F 31.0 °F 27.0 °F 72% 30.40 in 10.0 mi SW 4.6 mph - N/A   Partly Cloudy
8:53 PM 34.0 °F - 27.0 °F 75% 30.39 in 10.0 mi Calm Calm - N/A   Clear
9:53 PM 30.9 °F - 26.1 °F 82% 30.40 in 10.0 mi Calm Calm - N/A   Clear
10:53 PM 30.9 °F - 26.1 °F 82% 30.40 in 10.0 mi Calm Calm - N/A   Clear
11:53 PM 32.0 °F - 26.1 °F 79% 30.38 in 10.0 mi Calm Calm - N/A   Clear